Main page
METAR-TAF:

METAR-TAF

Airports :

Spadeadam, England

RAF Spadeadam

latitude: 55-03N, longitude: 002-33W, elevation: 325 m

Current weather observation

The report was made 1 hour and 8 minutes ago, at 13:50 UTC
Wind 14 kt from the West/Southwest
Temperature 4°C
Humidity 93%
Pressure 1006 hPa
Visibility 10 km or more

METAR: EGOM 241350Z AUTO 25014KT 9999 SCT010/// SCT022/// 04/03 Q1006

Time: 14:58 (14:58 UTC)


TAF: missing

Weather observations and forecasts of more than 4000 airports (METAR and TAF reports).

The available stations are represented by yellow and red dots on the map.

Hover mouse over dot to see the name of the station.

Then click to see weather observations and forecasts.

To change the map : click on the green buttons with a black cross to zoom in, on the green button with a dash to zoom out, or on the green arrows for adjacent maps.


METAR-TAF: